Overview Statistics Trail Chart Weather Telemetry Raw packets
 

This is the latest recevied weather packets stored in our database for station/object EA1IDU-12. If no packets are shown the sender has not sent any weather packets the latest 10 day(s).

<< 30 31 32 33 34 35 36 >>
Time Temp. Humidity Pressure Rain* Wind** Luminosity Snow
1787904602 13.89° C 92% 1029 hPa - - - -
1787903702 13.89° C 92% 1028.7 hPa - - - -
1787902802 12.22° C 94% 1028.5 hPa - - - -
1787901902 11.11° C 93% 1028.4 hPa - - - -
1787901001 10.56° C 93% 1028.3 hPa - - - -
1787900101 10.56° C 93% 1028.3 hPa - - - -
1787899201 10.56° C 93% 1028.2 hPa - - - -
1787898301 10° C 93% 1028.2 hPa - - - -
1787897401 9.44° C 93% 1028.1 hPa - - - -
1787896501 9.44° C 93% 1028 hPa - - - -
1787895601 8.89° C 93% 1027.9 hPa - - - -
1787894700 8.89° C 93% 1027.9 hPa - - - -
1787893800 9.44° C 92% 1027.8 hPa - - - -
1787892899 9.44° C 93% 1027.8 hPa - - - -
1787891999 9.44° C 93% 1027.7 hPa - - - -
1787891116 9.44° C 92% 1027.6 hPa - - - -
1787890217 9.44° C 92% 1027.5 hPa - - - -
1787889316 9.44° C 92% 1027.5 hPa - - - -
1787888417 9.44° C 91% 1027.3 hPa - - - -
1787887517 10° C 91% 1027.3 hPa - - - -
1787886616 10° C 90% 1027.1 hPa - - - -
1787885716 10.56° C 90% 1026.9 hPa - - - -
1787884815 10.56° C 91% 1027.2 hPa - - - -
1787883914 10.56° C 91% 1027.1 hPa - - - -
1787883014 10.56° C 91% 1027 hPa - - - -

* Rain since midnight (hover to see other rain measurements)
** Current wind speed in m/s (hover to see current wind gust speed)